Terminal Aerodrome Forecast
Issued by NWS Lake Charles, LA

Home | Current Version | Previous Version | Text Only | Print | Product List | Glossary On
Versions: 1 2 3 4 5 6 7 8 9 10 11 12
646
FTUS44 KLCH 190520
TAFLFT
TAF
KLFT 190520Z 1906/2006 VRB03KT P6SM SKC
     FM191400 07006KT P6SM SCT250=

USA.gov is the U.S. government's official web portal to all federal, state and local government web resources and services.